CW8386 Weather Reports


Display with metric or nautical units.
time (UTC)temp
F
wind
direction
speed
MPH
gust
MPH
rain 1hr
in
rain 24hr
in
rain mn
in
humidity
%
barometer
mb
20260507032541 52 360 0.0 3.0 0.00 0.02 0.02 37 1012.3
20260507032103 53 360 0.0 3.0 0.00 0.02 0.02 38 1012.3
20260507031604 53 360 0.0 0.0 0.00 0.02 0.02 37 1012.3
20260507031046 54 360 0.0 1.0 0.00 0.02 0.02 35 1012.3
20260507030545 55 360 0.0 4.0 0.00 0.02 0.02 34 1012.3
20260507030027 55 360 0.0 4.0 0.00 0.02 0.02 34 1012.2
20260507025527 56 360 0.0 2.0 0.00 0.02 0.02 34 1012.2
20260507025049 56 360 0.0 4.0 0.00 0.02 0.02 34 1012.1
20260507024529 56 360 1.0 4.0 0.00 0.02 0.02 34 1012.1
20260507024030 56 360 0.0 2.0 0.00 0.02 0.02 33 1012.2
20260507023550 56 360 1.0 5.0 0.00 0.02 0.02 33 1012.2
20260507023031 56 360 0.0 5.0 0.00 0.02 0.02 33 1012.2
20260507022551 56 360 0.0 3.0 0.00 0.02 0.02 32 1012.2
20260507022031 57 360 0.0 9.0 0.00 0.02 0.02 32 1012.2
20260507021553 57 360 2.0 9.0 0.00 0.02 0.02 32 1012.2
20260507021038 57 360 3.0 9.0 0.00 0.02 0.02 32 1012.3
20260507020538 57 360 2.0 11.0 0.00 0.02 0.02 32 1012.4
20260507020041 57 360 2.0 11.0 0.00 0.02 0.02 32 1012.5
20260507015543 57 360 4.0 9.0 0.00 0.02 0.02 31 1012.5
20260507015124 58 360 5.0 12.0 0.00 0.02 0.02 31 1012.5
20260507014545 58 360 7.0 12.0 0.00 0.02 0.02 30 1011.8
20260507014127 58 360 0.0 10.0 0.00 0.02 0.02 31 1011.8
20260507013604 58 360 5.0 12.0 0.00 0.02 0.02 30 1011.9
20260507013024 58 360 3.0 13.0 0.00 0.02 0.02 30 1011.9
20260507012526 59 360 4.0 13.0 0.00 0.02 0.02 30 1011.9
20260507012026 59 360 4.0 10.0 0.00 0.02 0.02 30 1012.0
20260507011527 59 360 4.0 13.0 0.00 0.02 0.02 30 1012.1
20260507011029 59 360 7.0 13.0 0.00 0.02 0.02 29 1012.2
20260507010049 59 360 2.0 15.0 0.00 0.03 0.02 29 1012.2
20260507005529 59 360 8.0 15.0 0.00 0.03 0.02 29 1012.3
20260507005051 59 360 7.0 11.0 0.00 0.03 0.02 29 1012.3
20260507004551 60 360 3.0 11.0 0.00 0.03 0.02 29 1012.4
20260507004113 59 360 8.0 11.0 0.00 0.03 0.02 29 1012.4
20260507003530 60 360 2.0 12.0 0.00 0.03 0.02 29 1012.4
20260507003052 60 360 6.0 12.0 0.00 0.03 0.02 28 1012.5
20260507002613 60 360 0.0 6.0 0.00 0.03 0.02 28 1012.6
20260507002054 60 360 0.0 7.0 0.00 0.03 0.02 28 1012.6
20260507001533 60 360 0.0 12.0 0.00 0.03 0.02 29 1012.7
20260507001035 60 360 0.0 12.0 0.00 0.03 0.02 28 1012.8
20260507000556 60 360 2.0 11.0 0.00 0.03 0.02 29 1012.8
20260507000036 60 360 0.0 7.0 0.00 0.03 0.02 29 1012.8
20260506235537 60 360 0.0 7.0 0.00 0.03 0.02 28 1012.9
20260506235059 60 360 0.0 6.0 0.00 0.03 0.02 28 1012.9
20260506234540 60 360 0.0 10.0 0.00 0.03 0.02 27 1013.0
20260506234043 60 360 1.0 10.0 0.00 0.03 0.02 28 1013.2
20260506233603 60 360 1.0 5.0 0.00 0.03 0.02 27 1013.1
20260506233026 60 360 0.0 4.0 0.00 0.03 0.02 26 1013.2
20260506232527 60 360 0.0 0.0 0.00 0.03 0.02 26 1013.3
20260506232048 59 360 0.0 0.0 0.00 0.03 0.02 26 1013.3
20260506231528 58 360 0.0 0.0 0.00 0.03 0.02 25 1013.5
20260506231110 58 360 0.0 4.0 0.00 0.03 0.02 25 1013.6
20260506230611 58 360 0.0 7.0 0.00 0.03 0.02 26 1013.7
20260506230030 58 360 2.0 11.0 0.00 0.03 0.02 25 1013.8
20260506225549 58 360 1.0 11.0 0.00 0.03 0.02 25 1013.9
20260506225030 58 360 4.0 10.0 0.00 0.03 0.02 26 1014.0
20260506224531 58 360 1.0 5.0 0.00 0.03 0.02 26 1014.0
20260506224114 58 360 1.0 4.0 0.00 0.03 0.02 25 1014.1
20260506223533 59 360 0.0 0.0 0.00 0.03 0.02 24 1014.2
20260506223033 60 360 0.0 6.0 0.00 0.03 0.02 24 1014.3
20260506222534 60 360 2.0 6.0 0.00 0.03 0.02 24 1014.4
20260506222035 59 360 0.0 4.0 0.00 0.03 0.02 24 1014.6
20260506221536 59 360 1.0 8.0 0.00 0.03 0.02 24 1014.7
20260506221119 59 360 2.0 8.0 0.00 0.03 0.02 25 1014.0
20260506220618 58 360 0.0 0.0 0.00 0.03 0.02 25 1014.3
20260506220057 57 360 0.0 0.0 0.00 0.03 0.02 24 1014.3
20260506215537 57 360 0.0 0.0 0.00 0.03 0.02 24 1014.4
20260506215119 58 360 0.0 7.0 0.00 0.03 0.02 24 1014.5
20260506214619 57 360 2.0 7.0 0.00 0.03 0.02 24 1014.7
20260506214039 57 360 1.0 5.0 0.00 0.03 0.02 25 1014.9
20260506213538 57 360 0.0 0.0 0.00 0.03 0.02 25 1015.0
20260506213100 58 360 0.0 0.0 0.00 0.03 0.02 24 1015.0
20260506212540 58 360 0.0 0.0 0.00 0.03 0.02 24 1015.2
20260506212040 56 360 0.0 6.0 0.00 0.03 0.02 26 1015.3
20260506211123 56 360 4.0 11.0 0.00 0.03 0.02 27 1015.4
20260506210100 55 360 6.0 12.0 0.00 0.03 0.02 26 1015.6
20260506205601 55 360 8.0 11.0 0.00 0.03 0.02 27 1015.8
20260506205102 55 360 4.0 6.0 0.00 0.03 0.02 29 1015.8
20260506204543 54 360 1.0 6.0 0.00 0.03 0.02 30 1015.9
20260506204045 53 360 0.0 6.0 0.00 0.03 0.02 29 1015.9
20260506203544 53 360 2.0 12.0 0.00 0.03 0.02 29 1016.1
20260506203025 54 360 0.0 12.0 0.00 0.03 0.02 29 1016.2
20260506202527 54 360 4.0 12.0 0.00 0.03 0.02 29 1016.3
20260506202029 54 360 0.0 12.0 0.00 0.03 0.02 28 1016.2
20260506201529 54 360 3.0 11.0 0.00 0.03 0.02 29 1016.4
20260506201032 53 360 1.0 6.0 0.00 0.03 0.02 29 1016.5
20260506200111 53 360 0.0 17.0 0.00 0.03 0.02 30 1016.5
20260506195551 52 360 13.0 17.0 0.00 0.03 0.02 31 1016.6
20260506195053 52 360 0.0 13.0 0.00 0.03 0.02 30 1016.6
20260506194553 52 360 0.0 11.0 0.00 0.03 0.02 30 1016.7
20260506194034 51 360 1.0 5.0 0.00 0.03 0.02 30 1016.7
20260506193535 52 360 0.0 9.0 0.00 0.03 0.02 31 1016.8
20260506193116 52 360 1.0 9.0 0.00 0.03 0.02 30 1016.9
20260506192054 52 360 1.0 16.0 0.00 0.03 0.02 32 1016.9
20260506191554 51 360 6.0 15.0 0.00 0.03 0.02 32 1017.0
20260506191116 51 360 6.0 12.0 0.00 0.03 0.02 34 1017.1
20260506190535 51 360 3.0 17.0 0.00 0.04 0.02 33 1017.1
20260506190035 51 360 1.0 17.0 0.00 0.04 0.02 32 1017.1
20260506185557 50 360 3.0 14.0 0.00 0.04 0.02 34 1017.2
20260506185118 50 360 5.0 14.0 0.00 0.04 0.02 34 1017.4
20260506184537 50 360 7.0 18.0 0.00 0.04 0.02 34 1017.3
20260506184121 50 360 9.0 18.0 0.00 0.04 0.02 35 1017.6
20260506183539 49 360 8.0 15.0 0.00 0.04 0.02 36 1017.6
20260506183100 49 360 5.0 13.0 0.00 0.04 0.02 37 1017.7
20260506182621 48 360 2.0 11.0 0.00 0.04 0.02 38 1017.9
20260506181558 49 360 8.0 16.0 0.00 0.04 0.02 39 1018.1
20260506181059 48 360 0.0 9.0 0.00 0.04 0.02 39 1018.1
20260506180559 48 360 2.0 13.0 0.00 0.04 0.02 40 1018.3
20260506175539 47 360 3.0 12.0 0.00 0.04 0.02 42 1018.3
20260506175101 47 360 5.0 12.0 0.00 0.04 0.02 40 1018.4
20260506174541 47 360 0.0 7.0 0.00 0.04 0.02 40 1018.4
20260506174104 47 360 2.0 15.0 0.00 0.04 0.02 40 1018.5
20260506173543 47 360 5.0 15.0 0.00 0.04 0.02 40 1018.5
20260506173045 47 360 10.0 15.0 0.00 0.04 0.02 42 1018.5
20260506172525 47 360 4.0 15.0 0.00 0.04 0.02 40 1018.5
20260506172028 47 360 8.0 15.0 0.00 0.04 0.02 41 1018.5
20260506171526 46 360 4.0 13.0 0.00 0.04 0.02 42 1018.6
20260506171108 46 360 4.0 13.0 0.00 0.04 0.02 41 1018.6
20260506170526 46 360 1.0 13.0 0.00 0.04 0.02 43 1018.7
20260506170048 45 360 7.0 13.0 0.00 0.04 0.02 43 1018.7
20260506165548 45 360 0.0 10.0 0.00 0.04 0.02 42 1018.7
20260506165028 45 360 0.0 10.0 0.00 0.04 0.02 42 1018.7
20260506164549 45 360 3.0 7.0 0.00 0.04 0.02 42 1018.9
20260506164029 46 360 0.0 5.0 0.00 0.04 0.02 40 1018.9
20260506163550 45 360 0.0 7.0 0.00 0.04 0.02 40 1018.9
20260506163051 46 360 0.0 7.0 0.00 0.04 0.02 40 1018.9
20260506162535 47 360 0.0 0.0 0.00 0.04 0.02 39 1019.0
20260506162036 46 360 0.0 0.0 0.00 0.04 0.02 40 1019.1
20260506161538 45 360 0.0 0.0 0.00 0.04 0.02 41 1019.2
20260506161040 44 360 0.0 0.0 0.00 0.04 0.02 41 1019.3
20260506160600 44 360 0.0 0.0 0.00 0.05 0.02 41 1019.3
20260506155101 43 360 0.0 0.0 0.01 0.05 0.02 43 1019.5
20260506154622 44 360 0.0 0.0 0.01 0.05 0.02 43 1019.6
20260506154043 43 360 0.0 0.0 0.01 0.05 0.02 43 1019.6
20260506153604 43 360 0.0 0.0 0.01 0.05 0.02 44 1019.6
20260506153124 42 360 0.0 0.0 0.01 0.05 0.02 47 1019.7
20260506152523 42 360 0.0 0.0 0.01 0.05 0.02 47 1019.8
20260506152046 41 360 0.0 0.0 0.01 0.05 0.02 48 1019.8
20260506151526 41 360 0.0 0.0 0.01 0.05 0.02 51 1019.8
20260506151028 41 360 0.0 0.0 0.01 0.05 0.02 49 1020.0
20260506150550 41 360 0.0 0.0 0.01 0.05 0.02 50 1020.0
20260506150029 41 360 0.0 0.0 0.00 0.04 0.01 51 1020.0
20260506145551 41 360 0.0 0.0 0.00 0.04 0.01 50 1020.1
20260506145032 42 360 0.0 0.0 0.00 0.04 0.01 52 1020.0
20260506144534 41 360 0.0 0.0 0.00 0.04 0.01 53 1020.1
20260506144056 41 360 0.0 0.0 0.00 0.04 0.01 55 1020.1
20260506143559 40 360 0.0 0.0 0.00 0.04 0.01 56 1020.1
20260506143120 39 360 0.0 0.0 0.00 0.04 0.01 57 1020.1
20260506142620 38 360 0.0 0.0 0.00 0.04 0.01 58 1020.2
20260506142041 38 360 0.0 0.0 0.00 0.04 0.01 59 1020.2
20260506141523 37 360 0.0 0.0 0.00 0.04 0.01 59 1020.3
20260506141045 37 360 0.0 0.0 0.01 0.04 0.01 59 1020.2
20260506140527 36 360 0.0 0.0 0.01 0.05 0.01 61 1020.1
20260506140051 36 360 0.0 0.0 0.01 0.05 0.01 61 1020.2
20260506135533 37 360 0.0 0.0 0.01 0.05 0.01 61 1020.2
20260506135035 37 360 0.0 0.0 0.01 0.05 0.01 61 1020.2
20260506134558 37 360 0.0 0.0 0.01 0.05 0.01 64 1020.2
20260506134059 37 360 0.0 0.0 0.01 0.05 0.01 64 1020.2
20260506133601 36 360 0.0 0.0 0.01 0.05 0.01 65 1020.2
20260506133026 36 360 0.0 0.0 0.01 0.05 0.01 67 1020.3
20260506132528 35 360 0.0 0.0 0.01 0.05 0.01 69 1020.1
20260506132031 34 360 0.0 0.0 0.01 0.05 0.01 71 1020.1
20260506131034 32 360 0.0 0.0 0.00 0.04 0.00 75 1020.1
20260506130050 30 360 0.0 0.0 0.00 0.05 0.00 78 1020.0
20260506125536 29 360 0.0 0.0 0.00 0.05 0.00 79 1020.0
20260506125038 28 360 0.0 0.0 0.00 0.05 0.00 79 1019.8
20260506124601 27 360 0.0 0.0 0.00 0.05 0.00 79 1019.9
20260506124123 27 360 0.0 0.0 0.00 0.05 0.00 79 1019.8
20260506123523 26 360 0.0 5.0 0.00 0.05 0.00 78 1019.8
20260506123024 26 360 0.0 5.0 0.00 0.05 0.00 78 1019.7
20260506122527 26 360 4.0 5.0 0.00 0.05 0.00 78 1019.6
20260506122030 26 360 3.0 4.0 0.00 0.05 0.00 78 1019.6
20260506121533 26 360 4.0 4.0 0.00 0.05 0.00 78 1020.3
20260506121037 26 360 0.0 4.0 0.00 0.05 0.00 78 1020.2
20260506120535 26 360 1.0 4.0 0.00 0.05 0.00 78 1020.2
20260506120037 26 360 1.0 4.0 0.00 0.05 0.00 78 1020.2
20260506115539 26 360 3.0 4.0 0.00 0.05 0.00 78 1020.1
20260506115121 26 360 0.0 5.0 0.00 0.05 0.00 78 1020.1
20260506114622 26 360 1.0 6.0 0.00 0.05 0.00 78 1020.1
20260506114043 25 360 4.0 6.0 0.00 0.05 0.00 78 1020.0
20260506113526 25 360 2.0 6.0 0.00 0.05 0.00 77 1020.0
20260506113028 26 360 4.0 6.0 0.00 0.05 0.00 77 1020.0
20260506112535 26 360 5.0 6.0 0.00 0.05 0.00 77 1019.9
20260506112113 27 360 2.0 5.0 0.00 0.05 0.00 77 1019.8
20260506111554 27 360 0.0 0.0 0.00 0.05 0.00 77 1019.9
20260506111041 27 360 0.0 0.0 0.00 0.05 0.00 76 1019.9
20260506110542 27 360 0.0 3.0 0.00 0.06 0.00 76 1019.9
20260506110025 27 360 0.0 3.0 0.00 0.06 0.00 76 1019.9
20260506105527 27 360 0.0 5.0 0.00 0.06 0.00 76 1019.9
20260506105050 28 360 0.0 5.0 0.00 0.06 0.00 76 1019.9
20260506104532 28 360 0.0 3.0 0.00 0.06 0.00 74 1019.9
20260506104034 28 360 0.0 0.0 0.00 0.06 0.00 74 1019.9
20260506103616 29 360 0.0 0.0 0.00 0.06 0.00 74 1019.8
20260506103057 30 360 0.0 0.0 0.00 0.06 0.00 73 1019.8
20260506102539 31 360 0.0 0.0 0.00 0.06 0.00 73 1019.9
20260506102042 31 360 0.0 0.0 0.00 0.06 0.00 73 1019.8
20260506101524 32 360 0.0 0.0 0.00 0.06 0.00 73 1019.9
20260506101028 32 360 0.0 0.0 0.00 0.06 0.00 73 1019.7
20260506100529 31 360 0.0 0.0 0.00 0.07 0.00 74 1019.7
20260506100031 31 360 0.0 0.0 0.00 0.07 0.00 73 1019.7
20260506095614 31 360 0.0 0.0 0.00 0.07 0.00 73 1019.7
20260506094534 32 360 0.0 0.0 0.00 0.07 0.00 73 1019.6
20260506094058 32 360 0.0 0.0 0.00 0.07 0.00 73 1019.6
20260506093538 32 360 0.0 0.0 0.00 0.07 0.00 73 1019.6
20260506093120 31 360 0.0 0.0 0.00 0.07 0.00 73 1019.5
20260506092541 31 360 0.0 0.0 0.00 0.07 0.00 73 1019.6
20260506092028 31 360 0.0 0.0 0.00 0.07 0.00 73 1019.5
20260506091551 31 360 0.0 3.0 0.00 0.07 0.00 74 1019.5
20260506091033 30 360 1.0 5.0 0.00 0.07 0.00 74 1019.5
20260506090534 30 360 3.0 6.0 0.00 0.09 0.00 74 1019.4
20260506090036 30 360 3.0 6.0 0.00 0.09 0.00 73 1019.4
20260506085558 30 360 5.0 6.0 0.00 0.09 0.00 72 1019.4
20260506085100 30 360 4.0 6.0 0.00 0.09 0.00 72 1019.4
20260506084602 31 360 1.0 5.0 0.00 0.09 0.00 71 1019.4
20260506084104 31 360 4.0 5.0 0.00 0.09 0.00 70 1019.4
20260506083526 31 360 1.0 5.0 0.00 0.09 0.00 69 1019.4
20260506083028 32 360 0.0 4.0 0.00 0.09 0.00 67 1019.4
20260506082531 33 360 2.0 5.0 0.00 0.09 0.00 66 1019.4
20260506082054 33 360 1.0 5.0 0.00 0.09 0.00 65 1019.3
20260506081556 34 360 2.0 7.0 0.00 0.09 0.00 64 1019.3
20260506081059 34 360 5.0 7.0 0.00 0.09 0.00 64 1019.3
20260506080541 34 360 3.0 7.0 0.00 0.10 0.00 63 1019.3
20260506080124 34 360 0.0 1.0 0.00 0.10 0.00 63 1019.4
20260506073054 35 360 0.0 3.0 0.00 0.10 0.00 63 1019.1
20260506072535 35 360 0.0 3.0 0.00 0.10 0.00 62 1019.1
20260506072057 36 360 0.0 0.0 0.00 0.10 0.00 62 1019.3
20260506071539 36 360 0.0 0.0 0.00 0.10 0.00 61 1019.2
20260506071025 36 360 0.0 0.0 0.00 0.10 0.00 61 1019.2
20260506070548 36 360 0.0 0.0 0.00 0.11 0.00 61 1019.2
20260506062046 36 360 6.0 13.0 0.00 0.11 0.00 62 1018.7
20260506061527 36 360 7.0 13.0 0.00 0.11 0.00 62 1018.8
20260506061110 36 360 9.0 13.0 0.00 0.11 0.00 62 1019.5
20260506060531 36 360 5.0 13.0 0.00 0.11 0.11 62 1019.5
20260506051032 38 360 8.0 14.0 0.00 0.11 0.11 63 1018.9
20260506050533 38 360 5.0 13.0 0.00 0.11 0.11 63 1018.9
20260506045101 38 360 9.0 15.0 0.00 0.11 0.11 64 1019.0
20260506044603 38 360 8.0 16.0 0.00 0.11 0.11 64 1019.0
20260506044024 38 360 11.0 16.0 0.00 0.11 0.11 64 1019.0
20260506043529 38 360 11.0 16.0 0.00 0.11 0.11 64 1019.1
20260506043030 38 360 12.0 16.0 0.00 0.11 0.11 64 1019.1
20260506042553 39 360 9.0 15.0 0.00 0.11 0.11 64 1019.1
20260506042115 39 360 9.0 17.0 0.00 0.11 0.11 63 1019.0
20260506041536 39 360 11.0 17.0 0.00 0.11 0.11 63 1019.0
20260506040537 38 360 9.0 15.0 0.00 0.11 0.11 63 1018.9
20260506040101 39 360 7.0 15.0 0.00 0.11 0.11 64 1018.8
20260506035603 39 360 8.0 15.0 0.00 0.11 0.11 64 1018.9
20260506035120 39 360 11.0 15.0 0.00 0.11 0.11 64 1018.8
20260506034525 39 360 9.0 15.0 0.00 0.11 0.11 63 1018.6
20260506034027 39 360 9.0 18.0 0.00 0.11 0.11 63 1018.5
20260506033608 39 360 10.0 18.0 0.00 0.11 0.11 63 1018.4